Regional Weather Roundup
Issued by NWS Charleston, WV

Home | Current Version | Previous Version | Graphics & Text | Print | Product List | Glossary On
Versions: 1 2 3 4 5 6 7 8 9 10 11 12 13 14 15 16 17 18 19 20 21 22 23 24 25 26 27 28 29 30 31 32 33 34 35 36 37 38 39 40 41 42 43 44 45 46 47 48 49 50
000
ASUS41 KRLX 281410
RWRRLX
West Virginia Regional Weather Roundup
National Weather Service Charleston WV
1000 AM EDT SUN AUG 28 2016

Note: "fair" indicates few or no clouds below 12,000 feet with no
significant weather and/or obstructions to visibility.

WVZ003-281500-
Northern Panhandle of West Virginia

CITY           SKY/WX    TMP DP  RH WIND       PRES   REMARKS
WHEELING       SUNNY     80  71  74 CALM      30.23S
$$

WVZ009-281500-
Northwest West Virginia

CITY           SKY/WX    TMP DP  RH WIND       PRES   REMARKS
PARKERSBURG    CLOUDY    80  72  76 CALM      30.24R
$$

WVZ006-281500-
Western West Virginia

CITY           SKY/WX    TMP DP  RH WIND       PRES   REMARKS
HUNTINGTON     CLOUDY    77  73  87 CALM      30.20R
$$

WVZ015-281500-
West Central West Virginia

CITY           SKY/WX    TMP DP  RH WIND       PRES   REMARKS
CHARLESTON     PTSUNNY   81  71  71 CALM      30.22S
$$

WVZ022-031-281500-
North Central West Virginia

CITY           SKY/WX    TMP DP  RH WIND       PRES   REMARKS
CLARKSBURG     SUNNY     80  70  71 CALM      30.24S
MORGANTOWN     MOSUNNY   81  71  71 CALM      30.26R
$$

WVZ025-035-042-045-281500-
Southern West Virginia

CITY           SKY/WX    TMP DP  RH WIND       PRES   REMARKS
BECKLEY        SUNNY     76  66  71 SE12      30.33R
LOGAN            N/A     79  70  73 CALM      30.25S
BLUEFIELD      MOSUNNY   71  65  81 VRB3      30.36R
LEWISBURG      SUNNY     74  66  74 CALM      30.33S
$$

WVZ047-281500-
Northern Mountains of West Virginia

CITY           SKY/WX    TMP DP  RH WIND       PRES   REMARKS
ELKINS         LGT RAIN  76  69  79 CALM      30.30S
$$

WVZ052-281500-
Eastern Panhandle of West Virginia

CITY           SKY/WX    TMP DP  RH WIND       PRES   REMARKS
MARTINSBURG    SUNNY     77  69  76 VRB3      30.26S
PETERSBURG     SUNNY     78  71  79 CALM      30.27S
$$



USA.gov is the U.S. government's official web portal to all federal, state and local government web resources and services.